Year,Month,Day,Hour,Minute,Value (Times are PST for temperature in C)
2008,09,04,00,00,14.30
2008,09,04,00,01,14.20
2008,09,04,00,02,14.20
2008,09,04,00,03,14.20
2008,09,04,00,04,14.20
2008,09,04,00,05,14.20
2008,09,04,00,06,14.20
2008,09,04,00,07,14.20
2008,09,04,00,08,14.20
2008,09,04,00,09,14.20
2008,09,04,00,10,14.20
2008,09,04,00,11,14.20
2008,09,04,00,12,14.20
2008,09,04,00,13,14.20
2008,09,04,00,14,14.20
2008,09,04,00,15,14.20
2008,09,04,00,16,14.20
2008,09,04,00,17,14.20
2008,09,04,00,18,14.20
2008,09,04,00,19,14.20
2008,09,04,00,20,14.20
2008,09,04,00,21,14.20
2008,09,04,00,22,14.20
2008,09,04,00,23,14.20
2008,09,04,00,24,14.10
2008,09,04,00,25,14.10
2008,09,04,00,26,14.10
2008,09,04,00,27,14.10
2008,09,04,00,28,14.10
2008,09,04,00,29,14.10
2008,09,04,00,30,14.00
2008,09,04,00,31,14.00
2008,09,04,00,32,14.00
2008,09,04,00,33,14.00
2008,09,04,00,34,14.00
2008,09,04,00,35,14.00
2008,09,04,00,36,14.00
2008,09,04,00,37,13.90
2008,09,04,00,38,13.90
2008,09,04,00,39,13.90
2008,09,04,00,40,13.90
2008,09,04,00,41,13.90
2008,09,04,00,42,13.90
2008,09,04,00,43,13.90
2008,09,04,00,44,13.90
2008,09,04,00,45,13.90
2008,09,04,00,46,13.90
2008,09,04,00,47,13.90
2008,09,04,00,48,13.90
2008,09,04,00,49,13.90
2008,09,04,00,50,13.90
2008,09,04,00,51,14.00
2008,09,04,00,52,14.00
2008,09,04,00,53,14.00
2008,09,04,00,54,14.00
2008,09,04,00,55,14.00
2008,09,04,00,56,14.00
2008,09,04,00,57,14.10
2008,09,04,00,58,14.10
2008,09,04,00,59,14.10
2008,09,04,01,00,14.00
2008,09,04,01,01,14.00
2008,09,04,01,02,14.00
2008,09,04,01,03,14.00
2008,09,04,01,04,14.00
2008,09,04,01,05,14.00
2008,09,04,01,06,14.00
2008,09,04,01,07,14.00
2008,09,04,01,08,14.00
2008,09,04,01,09,14.00
2008,09,04,01,10,14.00
2008,09,04,01,11,14.00
2008,09,04,01,12,14.00
2008,09,04,01,13,13.90
2008,09,04,01,14,14.00
2008,09,04,01,15,13.90
2008,09,04,01,16,14.00
2008,09,04,01,17,13.90
2008,09,04,01,18,13.90
2008,09,04,01,19,13.90
2008,09,04,01,20,13.90
2008,09,04,01,21,13.90
2008,09,04,01,22,13.90
2008,09,04,01,23,13.90
2008,09,04,01,24,13.90
2008,09,04,01,25,13.90
2008,09,04,01,26,13.90
2008,09,04,01,27,13.90
2008,09,04,01,28,13.90
2008,09,04,01,29,13.80
2008,09,04,01,30,13.80
2008,09,04,01,31,13.80
2008,09,04,01,32,13.70
2008,09,04,01,33,13.60
2008,09,04,01,34,13.60
2008,09,04,01,35,13.60
2008,09,04,01,36,13.60
2008,09,04,01,37,13.50
2008,09,04,01,38,13.50
2008,09,04,01,39,13.50
2008,09,04,01,40,13.40
2008,09,04,01,41,13.40
2008,09,04,01,42,13.40
2008,09,04,01,43,13.40
2008,09,04,01,44,13.40
2008,09,04,01,45,13.40
2008,09,04,01,46,13.40
2008,09,04,01,47,13.40
2008,09,04,01,48,13.40
2008,09,04,01,49,13.30
2008,09,04,01,50,13.30
2008,09,04,01,51,13.30
2008,09,04,01,52,13.30
2008,09,04,01,53,13.30
2008,09,04,01,54,13.30
2008,09,04,01,55,13.30
2008,09,04,01,56,13.30
2008,09,04,01,57,13.20
2008,09,04,01,58,13.20
2008,09,04,01,59,13.20
2008,09,04,02,00,13.20
2008,09,04,02,01,13.20
2008,09,04,02,02,13.10
2008,09,04,02,03,13.10
2008,09,04,02,04,13.10
2008,09,04,02,05,13.00
2008,09,04,02,06,13.00
2008,09,04,02,07,13.00
2008,09,04,02,08,12.90
2008,09,04,02,09,12.90
2008,09,04,02,10,12.90
2008,09,04,02,11,12.90
2008,09,04,02,12,12.80
2008,09,04,02,13,12.80
2008,09,04,02,14,12.80
2008,09,04,02,15,12.80
2008,09,04,02,16,12.70
2008,09,04,02,17,12.70
2008,09,04,02,18,12.70
2008,09,04,02,19,12.60
2008,09,04,02,20,12.60
2008,09,04,02,21,12.50
2008,09,04,02,22,12.50
2008,09,04,02,23,12.40
2008,09,04,02,24,12.40
2008,09,04,02,25,12.40
2008,09,04,02,26,12.30
2008,09,04,02,27,12.30
2008,09,04,02,28,12.30
2008,09,04,02,29,12.30
2008,09,04,02,30,12.20
2008,09,04,02,31,12.20
2008,09,04,02,32,12.20
2008,09,04,02,33,12.20
2008,09,04,02,34,12.10
2008,09,04,02,35,12.10
2008,09,04,02,36,12.10
2008,09,04,02,37,12.10
2008,09,04,02,38,12.10
2008,09,04,02,39,12.00
2008,09,04,02,40,12.00
2008,09,04,02,41,12.00
2008,09,04,02,42,12.00
2008,09,04,02,43,11.90
2008,09,04,02,44,11.90
2008,09,04,02,45,11.90
2008,09,04,02,46,11.90
2008,09,04,02,47,11.90
2008,09,04,02,48,11.90
2008,09,04,02,49,11.80
2008,09,04,02,50,11.80
2008,09,04,02,51,11.80
2008,09,04,02,52,11.80
2008,09,04,02,53,11.80
2008,09,04,02,54,11.70
2008,09,04,02,55,11.70
2008,09,04,02,56,11.70
2008,09,04,02,57,11.60
2008,09,04,02,58,11.60
2008,09,04,02,59,11.60
2008,09,04,03,00,11.50
2008,09,04,03,01,11.40
2008,09,04,03,02,11.40
2008,09,04,03,03,11.40
2008,09,04,03,04,11.40
2008,09,04,03,05,11.30
2008,09,04,03,06,11.30
2008,09,04,03,07,11.30
2008,09,04,03,08,11.30
2008,09,04,03,09,11.20
2008,09,04,03,10,11.20
2008,09,04,03,11,11.20
2008,09,04,03,12,11.20
2008,09,04,03,13,11.20
2008,09,04,03,14,11.20
2008,09,04,03,15,11.10
2008,09,04,03,16,11.10
2008,09,04,03,17,11.10
2008,09,04,03,18,11.10
2008,09,04,03,19,11.10
2008,09,04,03,20,11.10
2008,09,04,03,21,11.10
2008,09,04,03,22,11.10
2008,09,04,03,23,11.00
2008,09,04,03,24,11.00
2008,09,04,03,25,11.00
2008,09,04,03,26,11.00
2008,09,04,03,27,11.00
2008,09,04,03,28,10.90
2008,09,04,03,29,10.90
2008,09,04,03,30,10.90
2008,09,04,03,31,10.90
2008,09,04,03,32,10.90
2008,09,04,03,33,10.90
2008,09,04,03,34,10.90
2008,09,04,03,35,10.90
2008,09,04,03,36,10.90
2008,09,04,03,37,10.90
2008,09,04,03,38,10.90
2008,09,04,03,39,10.90
2008,09,04,03,40,10.80
2008,09,04,03,41,10.90
2008,09,04,03,42,10.90
2008,09,04,03,43,10.90
2008,09,04,03,44,10.90
2008,09,04,03,45,10.90
2008,09,04,03,46,10.90
2008,09,04,03,47,10.90
2008,09,04,03,48,10.90
2008,09,04,03,49,10.80
2008,09,04,03,50,10.80
2008,09,04,03,51,10.80
2008,09,04,03,52,10.80
2008,09,04,03,53,10.80
2008,09,04,03,54,10.70
2008,09,04,03,55,10.70
2008,09,04,03,56,10.70
2008,09,04,03,57,10.60
2008,09,04,03,58,10.60
2008,09,04,03,59,10.60
2008,09,04,04,00,10.60
2008,09,04,04,01,10.50
2008,09,04,04,02,10.50
2008,09,04,04,03,10.50
2008,09,04,04,04,10.40
2008,09,04,04,05,10.40
2008,09,04,04,06,10.40
2008,09,04,04,07,10.40
2008,09,04,04,08,10.30
2008,09,04,04,09,10.30
2008,09,04,04,10,10.30
2008,09,04,04,11,10.20
2008,09,04,04,12,10.20
2008,09,04,04,13,10.20
2008,09,04,04,14,10.20
2008,09,04,04,15,10.20
2008,09,04,04,16,10.20
2008,09,04,04,17,10.20
2008,09,04,04,18,10.20
2008,09,04,04,19,10.20
2008,09,04,04,20,10.20
2008,09,04,04,21,10.20
2008,09,04,04,22,10.20
2008,09,04,04,23,10.20
2008,09,04,04,24,10.20
2008,09,04,04,25,10.20
2008,09,04,04,26,10.20
2008,09,04,04,27,10.20
2008,09,04,04,28,10.20
2008,09,04,04,29,10.20
2008,09,04,04,30,10.20
2008,09,04,04,31,10.20
2008,09,04,04,32,10.20
2008,09,04,04,33,10.20
2008,09,04,04,34,10.20
2008,09,04,04,35,10.20
2008,09,04,04,36,10.10
2008,09,04,04,37,10.10
2008,09,04,04,38,10.00
2008,09,04,04,39,9.90
2008,09,04,04,40,9.90
2008,09,04,04,41,9.80
2008,09,04,04,42,9.80
2008,09,04,04,43,9.80
2008,09,04,04,44,9.70
2008,09,04,04,45,9.70
2008,09,04,04,46,9.70
2008,09,04,04,47,9.70
2008,09,04,04,48,9.70
2008,09,04,04,49,9.60
2008,09,04,04,50,9.60
2008,09,04,04,51,9.60
2008,09,04,04,52,9.60
2008,09,04,04,53,9.60
2008,09,04,04,54,9.50
2008,09,04,04,55,9.50
2008,09,04,04,56,9.50
2008,09,04,04,57,9.40
2008,09,04,04,58,9.40
2008,09,04,04,59,9.40
2008,09,04,05,00,9.40
2008,09,04,05,01,9.40
2008,09,04,05,02,9.40
2008,09,04,05,03,9.40
2008,09,04,05,04,9.40
2008,09,04,05,05,9.40
2008,09,04,05,06,9.40
2008,09,04,05,07,9.40
2008,09,04,05,08,9.40
2008,09,04,05,09,9.40
2008,09,04,05,10,9.40
2008,09,04,05,11,9.40
2008,09,04,05,12,9.40
2008,09,04,05,13,9.30
2008,09,04,05,14,9.30
2008,09,04,05,15,9.30
2008,09,04,05,16,9.30
2008,09,04,05,17,9.30
2008,09,04,05,18,9.30
2008,09,04,05,19,9.30
2008,09,04,05,20,9.30
2008,09,04,05,21,9.30
2008,09,04,05,22,9.30
2008,09,04,05,23,9.30
2008,09,04,05,24,9.30
2008,09,04,05,25,9.30
2008,09,04,05,26,9.30
2008,09,04,05,27,9.30
2008,09,04,05,28,9.30
2008,09,04,05,29,9.30
2008,09,04,05,30,9.30
2008,09,04,05,31,9.30
2008,09,04,05,32,9.30
2008,09,04,05,33,9.30
2008,09,04,05,34,9.30
2008,09,04,05,35,9.30
2008,09,04,05,36,9.30
2008,09,04,05,37,9.20
2008,09,04,05,38,9.20
2008,09,04,05,39,9.20
2008,09,04,05,40,9.20
2008,09,04,05,41,9.20
2008,09,04,05,42,9.20
2008,09,04,05,43,9.20
2008,09,04,05,44,9.20
2008,09,04,05,45,9.20
2008,09,04,05,46,9.20
2008,09,04,05,47,9.10
2008,09,04,05,48,9.10
2008,09,04,05,49,9.10
2008,09,04,05,50,9.00
2008,09,04,05,51,9.00
2008,09,04,05,52,9.00
2008,09,04,05,53,8.90
2008,09,04,05,54,8.90
2008,09,04,05,55,8.90
2008,09,04,05,56,8.90
2008,09,04,05,57,8.90
2008,09,04,05,58,8.90
2008,09,04,05,59,8.90
2008,09,04,06,00,8.80
2008,09,04,06,01,8.80
2008,09,04,06,02,8.80
2008,09,04,06,03,8.80
2008,09,04,06,04,8.80
2008,09,04,06,05,8.80
2008,09,04,06,06,8.70
2008,09,04,06,07,8.70
2008,09,04,06,08,8.70
2008,09,04,06,09,8.70
2008,09,04,06,10,8.70
2008,09,04,06,11,8.70
2008,09,04,06,12,8.80
2008,09,04,06,13,8.80
2008,09,04,06,14,8.80
2008,09,04,06,15,8.80
2008,09,04,06,16,8.80
2008,09,04,06,17,8.80
2008,09,04,06,18,8.80
2008,09,04,06,19,8.80
2008,09,04,06,20,8.80
2008,09,04,06,21,8.80
2008,09,04,06,22,8.80
2008,09,04,06,23,8.80
2008,09,04,06,24,8.80
2008,09,04,06,25,8.80
2008,09,04,06,26,8.80
2008,09,04,06,27,8.90
2008,09,04,06,28,8.90
2008,09,04,06,29,8.90
2008,09,04,06,30,8.90
2008,09,04,06,31,8.90
2008,09,04,06,32,8.90
2008,09,04,06,33,8.90
2008,09,04,06,34,8.90
2008,09,04,06,35,8.90
2008,09,04,06,36,8.90
2008,09,04,06,37,8.90
2008,09,04,06,38,8.80
2008,09,04,06,39,8.80
2008,09,04,06,40,8.80
2008,09,04,06,41,8.80
2008,09,04,06,42,8.80
2008,09,04,06,43,8.80
2008,09,04,06,44,8.80
2008,09,04,06,45,8.80
2008,09,04,06,46,8.80
2008,09,04,06,47,8.80
2008,09,04,06,48,8.80
2008,09,04,06,49,8.80
2008,09,04,06,50,8.80
2008,09,04,06,51,8.80
2008,09,04,06,52,8.80
2008,09,04,06,53,8.80
2008,09,04,06,54,8.80
2008,09,04,06,55,8.80
2008,09,04,06,56,8.70
2008,09,04,06,57,8.70
2008,09,04,06,58,8.70
2008,09,04,06,59,8.70
2008,09,04,07,00,8.70
2008,09,04,07,01,8.70
2008,09,04,07,02,8.70
2008,09,04,07,03,8.70
2008,09,04,07,04,8.70
2008,09,04,07,05,8.70
2008,09,04,07,06,8.80
2008,09,04,07,07,8.70
2008,09,04,07,08,8.70
2008,09,04,07,09,8.70
2008,09,04,07,10,8.70
2008,09,04,07,11,8.70
2008,09,04,07,12,8.70
2008,09,04,07,13,8.70
2008,09,04,07,14,8.60
2008,09,04,07,15,8.60
2008,09,04,07,16,8.60
2008,09,04,07,17,8.60
2008,09,04,07,18,8.60
2008,09,04,07,19,8.60
2008,09,04,07,20,8.60
2008,09,04,07,21,8.60
2008,09,04,07,22,8.70
2008,09,04,07,23,8.70
2008,09,04,07,24,8.80
2008,09,04,07,25,8.90
2008,09,04,07,26,9.00
2008,09,04,07,27,9.00
2008,09,04,07,28,9.10
2008,09,04,07,29,9.20
2008,09,04,07,30,9.20
2008,09,04,07,31,9.20
2008,09,04,07,32,9.30
2008,09,04,07,33,9.30
2008,09,04,07,34,9.30
2008,09,04,07,35,9.30
2008,09,04,07,36,9.40
2008,09,04,07,37,9.40
2008,09,04,07,38,9.50
2008,09,04,07,39,9.60
2008,09,04,07,40,9.60
2008,09,04,07,41,9.60
2008,09,04,07,42,9.70
2008,09,04,07,43,9.70
2008,09,04,07,44,9.70
2008,09,04,07,45,9.70
2008,09,04,07,46,9.70
2008,09,04,07,47,9.80
2008,09,04,07,48,9.80
2008,09,04,07,49,9.80
2008,09,04,07,50,9.80
2008,09,04,07,51,9.90
2008,09,04,07,52,9.90
2008,09,04,07,53,9.90
2008,09,04,07,54,9.90
2008,09,04,07,55,10.00
2008,09,04,07,56,10.00
2008,09,04,07,57,10.00
2008,09,04,07,58,10.10
2008,09,04,07,59,10.10
2008,09,04,08,00,10.20
2008,09,04,08,01,10.20
2008,09,04,08,02,10.30
2008,09,04,08,03,10.40
2008,09,04,08,04,10.40
2008,09,04,08,05,10.50
2008,09,04,08,06,10.60
2008,09,04,08,07,10.70
2008,09,04,08,08,10.80
2008,09,04,08,09,10.80
2008,09,04,08,10,10.90
2008,09,04,08,11,11.10
2008,09,04,08,12,11.20
2008,09,04,08,13,11.30
2008,09,04,08,14,11.50
2008,09,04,08,15,11.60
2008,09,04,08,16,11.80
2008,09,04,08,17,11.90
2008,09,04,08,18,12.00
2008,09,04,08,19,12.10
2008,09,04,08,20,12.20
2008,09,04,08,21,12.30
2008,09,04,08,22,12.40
2008,09,04,08,23,12.60
2008,09,04,08,24,12.70
2008,09,04,08,25,12.80
2008,09,04,08,26,12.90
2008,09,04,08,27,13.10
2008,09,04,08,28,13.20
2008,09,04,08,29,13.30
2008,09,04,08,30,13.40
2008,09,04,08,31,13.50
2008,09,04,08,32,13.60
2008,09,04,08,33,13.70
2008,09,04,08,34,13.80
2008,09,04,08,35,13.80
2008,09,04,08,36,14.00
2008,09,04,08,37,14.10
2008,09,04,08,38,14.20
2008,09,04,08,39,14.30
2008,09,04,08,40,14.40
2008,09,04,08,41,14.50
2008,09,04,08,42,14.60
2008,09,04,08,43,14.60
2008,09,04,08,44,14.70
2008,09,04,08,45,14.80
2008,09,04,08,46,14.90
2008,09,04,08,47,15.00
2008,09,04,08,48,15.00
2008,09,04,08,49,15.00
2008,09,04,08,50,15.00
2008,09,04,08,51,15.00
2008,09,04,08,52,15.00
2008,09,04,08,53,15.00
2008,09,04,08,54,15.00
2008,09,04,08,55,15.00
2008,09,04,08,56,15.00
2008,09,04,08,57,15.10
2008,09,04,08,58,15.20
2008,09,04,08,59,15.20
2008,09,04,09,00,15.20
2008,09,04,09,01,15.30
2008,09,04,09,02,15.30
2008,09,04,09,03,15.40
2008,09,04,09,04,15.50
2008,09,04,09,05,15.60
2008,09,04,09,06,15.70
2008,09,04,09,07,15.80
2008,09,04,09,08,15.80
2008,09,04,09,09,15.90
2008,09,04,09,10,15.90
2008,09,04,09,11,16.00
2008,09,04,09,12,16.00
2008,09,04,09,13,16.00
2008,09,04,09,14,16.00
2008,09,04,09,15,16.10
2008,09,04,09,16,16.10
2008,09,04,09,17,16.10
2008,09,04,09,18,16.10
2008,09,04,09,19,16.00
2008,09,04,09,20,15.90
2008,09,04,09,21,15.90
2008,09,04,09,22,15.80
2008,09,04,09,23,15.80
2008,09,04,09,24,15.80
2008,09,04,09,25,15.80
2008,09,04,09,26,15.80
2008,09,04,09,27,15.90
2008,09,04,09,28,15.90
2008,09,04,09,29,15.90
2008,09,04,09,30,16.00
2008,09,04,09,31,16.00
2008,09,04,09,32,16.10
2008,09,04,09,33,16.10
2008,09,04,09,34,16.00
2008,09,04,09,35,16.00
2008,09,04,09,36,16.00
2008,09,04,09,37,16.00
2008,09,04,09,38,16.00
2008,09,04,09,39,16.00
2008,09,04,09,40,16.10
2008,09,04,09,41,16.10
2008,09,04,09,42,16.20
2008,09,04,09,43,16.30
2008,09,04,09,44,16.30
2008,09,04,09,45,16.40
2008,09,04,09,46,16.50
2008,09,04,09,47,16.50
2008,09,04,09,48,16.50
2008,09,04,09,49,16.50
2008,09,04,09,50,16.50
2008,09,04,09,51,16.50
2008,09,04,09,52,16.40
2008,09,04,09,53,16.50
2008,09,04,09,54,16.50
2008,09,04,09,55,16.50
2008,09,04,09,56,16.50
2008,09,04,09,57,16.40
2008,09,04,09,58,16.40
2008,09,04,09,59,16.40
2008,09,04,10,00,16.40
2008,09,04,10,01,16.40
2008,09,04,10,02,16.40
2008,09,04,10,03,16.40
2008,09,04,10,04,16.50
2008,09,04,10,05,16.60
2008,09,04,10,06,16.60
2008,09,04,10,07,16.70
2008,09,04,10,08,16.80
2008,09,04,10,09,16.90
2008,09,04,10,10,17.00
2008,09,04,10,11,17.00
2008,09,04,10,12,17.00
2008,09,04,10,13,16.90
2008,09,04,10,14,16.90
2008,09,04,10,15,16.90
2008,09,04,10,16,16.90
2008,09,04,10,17,17.00
2008,09,04,10,18,16.90
2008,09,04,10,19,17.00
2008,09,04,10,20,17.00
2008,09,04,10,21,17.10
2008,09,04,10,22,17.20
2008,09,04,10,23,17.20
2008,09,04,10,24,17.20
2008,09,04,10,25,17.10
2008,09,04,10,26,17.10
2008,09,04,10,27,17.10
2008,09,04,10,28,17.00
2008,09,04,10,29,16.90
2008,09,04,10,30,16.90
2008,09,04,10,31,16.90
2008,09,04,10,32,16.80
2008,09,04,10,33,16.90
2008,09,04,10,34,16.90
2008,09,04,10,35,16.90
2008,09,04,10,36,16.90
2008,09,04,10,37,16.90
2008,09,04,10,38,16.80
2008,09,04,10,39,16.80
2008,09,04,10,40,16.70
2008,09,04,10,41,16.70
2008,09,04,10,42,16.70
2008,09,04,10,43,16.80
2008,09,04,10,44,16.80
2008,09,04,10,45,16.80
2008,09,04,10,46,16.80
2008,09,04,10,47,16.90
2008,09,04,10,48,16.90
2008,09,04,10,49,17.00
2008,09,04,10,50,17.10
2008,09,04,10,51,17.20
2008,09,04,10,52,17.30
2008,09,04,10,53,17.30
2008,09,04,10,54,17.30
2008,09,04,10,55,17.30
2008,09,04,10,56,17.30
2008,09,04,10,57,17.30
2008,09,04,10,58,17.30
2008,09,04,10,59,17.30
2008,09,04,11,00,17.30
2008,09,04,11,01,17.30
2008,09,04,11,02,17.40
2008,09,04,11,03,17.40
2008,09,04,11,04,17.40
2008,09,04,11,05,17.30
2008,09,04,11,06,17.30
2008,09,04,11,07,17.40
2008,09,04,11,08,17.50
2008,09,04,11,09,17.50
2008,09,04,11,10,17.60
2008,09,04,11,11,17.60
2008,09,04,11,12,17.60
2008,09,04,11,13,17.60
2008,09,04,11,14,17.60
2008,09,04,11,15,17.60
2008,09,04,11,16,17.60
2008,09,04,11,17,17.70
2008,09,04,11,18,17.80
2008,09,04,11,19,17.80
2008,09,04,11,20,17.80
2008,09,04,11,21,17.80
2008,09,04,11,22,17.80
2008,09,04,11,23,17.90
2008,09,04,11,24,18.00
2008,09,04,11,25,18.10
2008,09,04,11,26,18.20
2008,09,04,11,27,18.30
2008,09,04,11,28,18.40
2008,09,04,11,29,18.40
2008,09,04,11,30,18.50
2008,09,04,11,31,18.50
2008,09,04,11,32,18.40
2008,09,04,11,33,18.40
2008,09,04,11,34,18.40
2008,09,04,11,35,18.50
2008,09,04,11,36,18.50
2008,09,04,11,37,18.60
2008,09,04,11,38,18.60
2008,09,04,11,39,18.50
2008,09,04,11,40,18.40
2008,09,04,11,41,18.40
2008,09,04,11,42,18.50
2008,09,04,11,43,18.60
2008,09,04,11,44,18.70
2008,09,04,11,45,18.60
2008,09,04,11,46,18.60
2008,09,04,11,47,18.60
2008,09,04,11,48,18.70
2008,09,04,11,49,18.70
2008,09,04,11,50,18.80
2008,09,04,11,51,18.80
2008,09,04,11,52,18.80
2008,09,04,11,53,18.80
2008,09,04,11,54,18.90
2008,09,04,11,55,18.80
2008,09,04,11,56,18.80
2008,09,04,11,57,18.80
2008,09,04,11,58,18.80
2008,09,04,11,59,18.80
2008,09,04,12,00,18.90
2008,09,04,12,01,18.90
2008,09,04,12,02,19.00
2008,09,04,12,03,19.00
2008,09,04,12,04,18.90
2008,09,04,12,05,18.70
2008,09,04,12,06,18.70
2008,09,04,12,07,18.70
2008,09,04,12,08,18.70
2008,09,04,12,09,18.70
2008,09,04,12,10,18.60
2008,09,04,12,11,18.70
2008,09,04,12,12,18.80
2008,09,04,12,13,19.00
2008,09,04,12,14,19.20
2008,09,04,12,15,19.30
2008,09,04,12,16,19.30
2008,09,04,12,17,19.40
2008,09,04,12,18,19.30
2008,09,04,12,19,19.40
2008,09,04,12,20,19.40
2008,09,04,12,21,19.40
2008,09,04,12,22,19.50
2008,09,04,12,23,19.60
2008,09,04,12,24,19.60
2008,09,04,12,25,19.60
2008,09,04,12,26,19.60
2008,09,04,12,27,19.60
2008,09,04,12,28,19.60
2008,09,04,12,29,19.50
2008,09,04,12,30,19.40
2008,09,04,12,31,19.30
2008,09,04,12,32,19.30
2008,09,04,12,33,19.40
2008,09,04,12,34,19.40
2008,09,04,12,35,19.50
2008,09,04,12,36,19.60
2008,09,04,12,37,19.60
2008,09,04,12,38,19.70
2008,09,04,12,39,19.80
2008,09,04,12,40,19.80
2008,09,04,12,41,19.80
2008,09,04,12,42,19.80
2008,09,04,12,43,19.70
2008,09,04,12,44,19.80
2008,09,04,12,45,19.80
2008,09,04,12,46,19.70
2008,09,04,12,47,19.60
2008,09,04,12,48,19.50
2008,09,04,12,49,19.40
2008,09,04,12,50,19.30
2008,09,04,12,51,19.20
2008,09,04,12,52,19.20
2008,09,04,12,53,19.20
2008,09,04,12,54,19.30
2008,09,04,12,55,19.30
2008,09,04,12,56,19.30
2008,09,04,12,57,19.40
2008,09,04,12,58,19.40
2008,09,04,12,59,19.40
2008,09,04,13,00,19.40
2008,09,04,13,01,19.40
2008,09,04,13,02,19.50
2008,09,04,13,03,19.60
2008,09,04,13,04,19.60
2008,09,04,13,05,19.70
2008,09,04,13,06,19.60
2008,09,04,13,07,19.50
2008,09,04,13,08,19.40
2008,09,04,13,09,19.40
2008,09,04,13,10,19.40
2008,09,04,13,11,19.40
2008,09,04,13,12,19.50
2008,09,04,13,13,19.40
2008,09,04,13,14,19.40
2008,09,04,13,15,19.40
2008,09,04,13,16,19.40
2008,09,04,13,17,19.30
2008,09,04,13,18,19.30
2008,09,04,13,19,19.40
2008,09,04,13,20,19.50
2008,09,04,13,21,19.50
2008,09,04,13,22,19.50
2008,09,04,13,23,19.50
2008,09,04,13,24,19.50
2008,09,04,13,25,19.50
2008,09,04,13,26,19.70
2008,09,04,13,27,19.70
2008,09,04,13,28,19.70
2008,09,04,13,29,19.70
2008,09,04,13,30,19.80
2008,09,04,13,31,19.80
2008,09,04,13,32,19.70
2008,09,04,13,33,19.70
2008,09,04,13,34,19.80
2008,09,04,13,35,19.80
2008,09,04,13,36,19.80
2008,09,04,13,37,19.80
2008,09,04,13,38,19.70
2008,09,04,13,39,19.60
2008,09,04,13,40,19.60
2008,09,04,13,41,19.60
2008,09,04,13,42,19.70
2008,09,04,13,43,19.70
2008,09,04,13,44,19.70
2008,09,04,13,45,19.60
2008,09,04,13,46,19.70
2008,09,04,13,47,19.90
2008,09,04,13,48,20.00
2008,09,04,13,49,20.00
2008,09,04,13,50,20.00
2008,09,04,13,51,19.90
2008,09,04,13,52,19.70
2008,09,04,13,53,19.50
2008,09,04,13,54,19.40
2008,09,04,13,55,19.40
2008,09,04,13,56,19.30
2008,09,04,13,57,19.30
2008,09,04,13,58,19.30
2008,09,04,13,59,19.20
2008,09,04,14,00,19.30
2008,09,04,14,01,19.20
2008,09,04,14,02,19.10
2008,09,04,14,03,19.10
2008,09,04,14,04,19.20
2008,09,04,14,05,19.30
2008,09,04,14,06,19.30
2008,09,04,14,07,19.30
2008,09,04,14,08,19.30
2008,09,04,14,09,19.50
2008,09,04,14,10,19.60
2008,09,04,14,11,19.60
2008,09,04,14,12,19.70
2008,09,04,14,13,19.70
2008,09,04,14,14,19.60
2008,09,04,14,15,19.70
2008,09,04,14,16,19.80
2008,09,04,14,17,19.90
2008,09,04,14,18,19.90
2008,09,04,14,19,19.70
2008,09,04,14,20,19.70
2008,09,04,14,21,19.60
2008,09,04,14,22,19.60
2008,09,04,14,23,19.60
2008,09,04,14,24,19.70
2008,09,04,14,25,19.90
2008,09,04,14,26,20.10
2008,09,04,14,27,20.20
2008,09,04,14,28,20.30
2008,09,04,14,29,20.40
2008,09,04,14,30,20.40
2008,09,04,14,31,20.30
2008,09,04,14,32,20.30
2008,09,04,14,33,20.30
2008,09,04,14,34,20.30
2008,09,04,14,35,20.20
2008,09,04,14,36,20.20
2008,09,04,14,37,20.20
2008,09,04,14,38,20.20
2008,09,04,14,39,20.30
2008,09,04,14,40,20.30
2008,09,04,14,41,20.40
2008,09,04,14,42,20.50
2008,09,04,14,43,20.60
2008,09,04,14,44,20.60
2008,09,04,14,45,20.50
2008,09,04,14,46,20.40
2008,09,04,14,47,20.40
2008,09,04,14,48,20.40
2008,09,04,14,49,20.50
2008,09,04,14,50,20.60
2008,09,04,14,51,20.70
2008,09,04,14,52,20.60
2008,09,04,14,53,20.50
2008,09,04,14,54,20.40
2008,09,04,14,55,20.20
2008,09,04,14,56,20.20
2008,09,04,14,57,20.30
2008,09,04,14,58,20.40
2008,09,04,14,59,20.50
2008,09,04,15,00,20.60
2008,09,04,15,01,20.50
2008,09,04,15,02,20.30
2008,09,04,15,03,20.20
2008,09,04,15,04,20.10
2008,09,04,15,05,20.20
2008,09,04,15,06,20.30
2008,09,04,15,07,20.30
2008,09,04,15,08,20.30
2008,09,04,15,09,20.20
2008,09,04,15,10,20.10
2008,09,04,15,11,20.10
2008,09,04,15,12,20.10
2008,09,04,15,13,20.20
2008,09,04,15,14,20.20
2008,09,04,15,15,20.30
2008,09,04,15,16,20.30
2008,09,04,15,17,20.30
2008,09,04,15,18,20.30
2008,09,04,15,19,20.20
2008,09,04,15,20,20.10
2008,09,04,15,21,20.20
2008,09,04,15,22,20.20
2008,09,04,15,23,20.10
2008,09,04,15,24,20.10
2008,09,04,15,25,20.10
2008,09,04,15,26,20.00
2008,09,04,15,27,20.10
2008,09,04,15,28,20.10
2008,09,04,15,29,20.20
2008,09,04,15,30,20.20
2008,09,04,15,31,20.10
2008,09,04,15,32,20.10
2008,09,04,15,33,20.10
2008,09,04,15,34,20.00
2008,09,04,15,35,20.00
2008,09,04,15,36,20.10
2008,09,04,15,37,20.10
2008,09,04,15,38,20.20
2008,09,04,15,39,20.40
2008,09,04,15,40,20.50
2008,09,04,15,41,20.40
2008,09,04,15,42,20.20
2008,09,04,15,43,20.10
2008,09,04,15,44,20.00
2008,09,04,15,45,20.00
2008,09,04,15,46,20.00
2008,09,04,15,47,20.10
2008,09,04,15,48,20.00
2008,09,04,15,49,19.90
2008,09,04,15,50,19.80
2008,09,04,15,51,19.80
2008,09,04,15,52,19.90
2008,09,04,15,53,19.90
2008,09,04,15,54,19.90
2008,09,04,15,55,19.80
2008,09,04,15,56,19.60
2008,09,04,15,57,19.50
2008,09,04,15,58,19.50
2008,09,04,15,59,19.50
2008,09,04,16,00,19.50
2008,09,04,16,01,19.40
2008,09,04,16,02,19.40
2008,09,04,16,03,19.50
2008,09,04,16,04,19.60
2008,09,04,16,05,19.50
2008,09,04,16,06,19.50
2008,09,04,16,07,19.40
2008,09,04,16,08,19.40
2008,09,04,16,09,19.30
2008,09,04,16,10,19.30
2008,09,04,16,11,19.10
2008,09,04,16,12,19.00
2008,09,04,16,13,19.00
2008,09,04,16,14,19.00
2008,09,04,16,15,18.90
2008,09,04,16,16,18.90
2008,09,04,16,17,19.00
2008,09,04,16,18,19.20
2008,09,04,16,19,19.40
2008,09,04,16,20,19.40
2008,09,04,16,21,19.30
2008,09,04,16,22,19.20
2008,09,04,16,23,19.20
2008,09,04,16,24,19.20
2008,09,04,16,25,19.20
2008,09,04,16,26,19.10
2008,09,04,16,27,19.10
2008,09,04,16,28,19.10
2008,09,04,16,29,19.10
2008,09,04,16,30,19.20
2008,09,04,16,31,19.20
2008,09,04,16,32,19.30
2008,09,04,16,33,19.40
2008,09,04,16,34,19.50
2008,09,04,16,35,19.60
2008,09,04,16,36,19.60
2008,09,04,16,37,19.60
2008,09,04,16,38,19.60
2008,09,04,16,39,19.60
2008,09,04,16,40,19.60
2008,09,04,16,41,19.70
2008,09,04,16,42,19.70
2008,09,04,16,43,19.60
2008,09,04,16,44,19.60
2008,09,04,16,45,19.60
2008,09,04,16,46,19.50
2008,09,04,16,47,19.50
2008,09,04,16,48,19.50
2008,09,04,16,49,19.50
2008,09,04,16,50,19.50
2008,09,04,16,51,19.40
2008,09,04,16,52,19.50
2008,09,04,16,53,19.60
2008,09,04,16,54,19.70
2008,09,04,16,55,19.70
2008,09,04,16,56,19.80
2008,09,04,16,57,19.80
2008,09,04,16,58,19.80
2008,09,04,16,59,19.90
2008,09,04,17,00,19.90
2008,09,04,17,01,20.00
2008,09,04,17,02,19.90
2008,09,04,17,03,19.80
2008,09,04,17,04,19.70
2008,09,04,17,05,19.60
2008,09,04,17,06,19.60
2008,09,04,17,07,19.50
2008,09,04,17,08,19.50
2008,09,04,17,09,19.40
2008,09,04,17,10,19.30
2008,09,04,17,11,19.20
2008,09,04,17,12,19.20
2008,09,04,17,13,19.30
2008,09,04,17,14,19.30
2008,09,04,17,15,19.20
2008,09,04,17,16,19.20
2008,09,04,17,17,19.30
2008,09,04,17,18,19.30
2008,09,04,17,19,19.20
2008,09,04,17,20,19.20
2008,09,04,17,21,19.30
2008,09,04,17,22,19.20
2008,09,04,17,23,19.20
2008,09,04,17,24,19.20
2008,09,04,17,25,19.30
2008,09,04,17,26,19.30
2008,09,04,17,27,19.40